DECAYED

STARLINK-1393, 45678 (Decayed)

Orbit data source: Space-Track

STARLINK-1393, 45678 was a payload satellite owned by SpaceX/Seattle (US) in LEO that was launched on Thu, 04 Jun 2020 UTC via an FALCON 9 launch vehicle from the Air Force Eastern Test Range (AFETR). Payload-class satellites include a variety of spacecraft equipped with specific instruments for various scientific and technological missions. These include communications satellites like Starlink; space stations such as the ISS; scientific satellites like the Hubble; Earth observation satellites from companies like Planet Labs, Umbra, and HawkEye 360; GPS; miniature CubeSats for education and research; and military/defense satellites.

Not visible in the next 10 days
Identifier
45678, 2020-035X
Orbit
Decayed
Country
Flag of USUS
Related business
Manufacturer
SpaceX/Seattle
Mission
Decayed Commercial Communications
Bus & Motor
STARLINK, Unknown motor
Mass
260 kg wet, ~248 kg dry
Launch date (UTC)
2020-06-04 (6 years ago)
Launch vehicle
FALCON 9
Launch site
Air Force Eastern Test Range (AFETR)
Object type
Payload
Rocket body
Debris
Shape & HBR
Box + 1 Pan, 10.1 m
Radar Cross Section
13.562 m², Large (>1 m²)

Expand to show TLE details & history
Last TLE update: 1 year ago

TLE from 1 year ago
0 STARLINK-1393
1 45678U 20035X   25066.04191178  .15450896  12551-4  27272-3 0  9999
2 45678  53.0245 226.9232 0008039 264.8162 200.3678 16.47205010263605
Epoch: 2025-03-07T01:00Z
TLE epoch observation values (Epoch: 2025-03-07T01:00:21.177Z)
Latitude
50.61121°
Longitude
161.09158°
Altitude
157.517 km
Speed
7.815 km/s
True Right ascension
22h 44m 45s
True Declination
50° 25' 37"
Sunlit
Object was in daylight at epoch
Visualization orbit readout
Latitude
Unknown
Longitude
Unknown
Altitude
Unknown
Speed
Unknown
Apparent Right ascension
Unknown
Apparent Declination
Unknown
Sunlit
N/A
Visualization observer readout
Local Sidereal Time
00:38:38
Azimuth
Unknown
Elevation
Unknown
Doppler factor
Unknown
Orbital elements
Apogee altitude
152.244 km
Perigee altitude
141.752 km
Semi-major axis
6,525.135 km
Eccentricity
0.0008
Inclination
53.0245°
RAAN
226.9232°
Arg. of periapsis
264.8162°
True anomaly
200.33577°
Mean anomaly
200.3678°
Eccentric anomaly
200.35178°
Mean motion
4.11774 °/min
Orbital period
87.43 mins
BSTAR
0.00027272
Loading maneuver chart data...
Computing Atmospheric mass density...

Documentation

Showing up to 5 results
|